,,PA_Meas_PMT16A,,PR_Meas_QMR101_102,,RH_Meas_QMH101,,SR_Meas_QMS101,,TA_Meas_QMH101,,GenWind,,GenWind,
time,status,PA,status,PR,status,RH,status,SR,status,TA,status,DirAvg,status,SpdAvg,
2009-09-02, 00:00:05,VALID,919.18,VALID,0,VALID,95.6434,VALID,0.107441,VALID,18.9409,VALID,150,VALID,0.753516,
2009-09-02, 00:01:05,VALID,919.194,VALID,0,VALID,95.4452,VALID,0.107441,VALID,18.9229,VALID,150,VALID,0.422266,
2009-09-02, 00:02:05,VALID,919.19,VALID,0,VALID,95.5595,VALID,0,VALID,18.9019,VALID,150,VALID,0.640234,
2009-09-02, 00:03:05,VALID,919.168,VALID,0,VALID,95.7272,VALID,0,VALID,18.9424,VALID,150,VALID,0.369531,
2009-09-02, 00:04:05,VALID,919.175,VALID,0,VALID,95.8263,VALID,0,VALID,19.0008,VALID,150,VALID,0.776563,
2009-09-02, 00:05:05,VALID,919.143,VALID,0,VALID,95.7501,VALID,0,VALID,19.0203,VALID,150,VALID,0.416406,
2009-09-02, 00:06:05,VALID,919.136,VALID,0,VALID,95.6434,VALID,0,VALID,18.9994,VALID,150,VALID,0.332812,
2009-09-02, 00:07:05,VALID,919.13,VALID,0,VALID,95.4604,VALID,0,VALID,19.0203,VALID,150,VALID,0.909766,
2009-09-02, 00:08:05,VALID,919.095,VALID,0,VALID,95.4528,VALID,0,VALID,19.0008,VALID,150,VALID,0.823047,
2009-09-02, 00:09:05,VALID,919.087,VALID,0,VALID,95.3689,VALID,0,VALID,18.9799,VALID,150,VALID,0.693359,
2009-09-02, 00:10:05,VALID,919.05,VALID,0,VALID,95.2088,VALID,0,VALID,19.0008,VALID,150,VALID,0.833203,
2009-09-02, 00:11:05,VALID,919.039,VALID,0,VALID,95.247,VALID,0,VALID,18.9994,VALID,150,VALID,0.513672,
2009-09-02, 00:12:05,VALID,919.058,VALID,0,VALID,95.1326,VALID,0,VALID,18.9994,VALID,150,VALID,0.533203,
2009-09-02, 00:13:05,VALID,919.037,VALID,0,VALID,95.0488,VALID,0,VALID,18.9994,VALID,150,VALID,0.519141,
2009-09-02, 00:14:05,VALID,919.012,VALID,0,VALID,95.064,VALID,0,VALID,18.9994,VALID,150,VALID,0.29375,
2009-09-02, 00:15:05,VALID,919.07,VALID,0,VALID,95.1326,VALID,0,VALID,19.0189,VALID,150,VALID,0.228906,
2009-09-02, 00:16:05,VALID,919.047,VALID,0,VALID,94.7591,VALID,0,VALID,19.0398,VALID,150,VALID,1.05,
2009-09-02, 00:17:05,VALID,919.038,VALID,0,VALID,94.5609,VALID,0,VALID,19.0384,VALID,150,VALID,0.615625,
2009-09-02, 00:18:05,VALID,919.062,VALID,0,VALID,94.2635,VALID,0.107441,VALID,19.0384,VALID,150,VALID,0.892187,
2009-09-02, 00:19:05,VALID,919.074,VALID,0,VALID,94.1568,VALID,0.107441,VALID,19.0384,VALID,150,VALID,1.22344,
2009-09-02, 00:20:05,VALID,919.079,VALID,0,VALID,94.0806,VALID,0,VALID,19.0579,VALID,150,VALID,1.06055,
2009-09-02, 00:21:05,VALID,919.063,VALID,0,VALID,94.012,VALID,0,VALID,19.0384,VALID,150,VALID,1.04883,
2009-09-02, 00:22:05,VALID,919.05,VALID,0,VALID,94.0882,VALID,0,VALID,19.0788,VALID,150,VALID,1.2332,
2009-09-02, 00:23:05,VALID,919.073,VALID,0,VALID,93.9815,VALID,0,VALID,19.0774,VALID,150,VALID,1.18242,
2009-09-02, 00:24:05,VALID,919.021,VALID,0,VALID,93.9129,VALID,0,VALID,19.0983,VALID,150,VALID,0.828906,
2009-09-02, 00:25:05,VALID,919.037,VALID,0,VALID,93.7985,VALID,0,VALID,19.0983,VALID,150,VALID,1.13281,
2009-09-02, 00:26:05,VALID,919.008,VALID,0,VALID,93.5698,VALID,0,VALID,19.1373,VALID,150,VALID,1.06875,
2009-09-02, 00:27:05,VALID,918.992,VALID,0,VALID,93.5012,VALID,0,VALID,19.1568,VALID,150,VALID,0.877344,
2009-09-02, 00:28:05,VALID,919.027,VALID,0,VALID,93.3945,VALID,0,VALID,19.1554,VALID,150,VALID,0.662109,
2009-09-02, 00:29:05,VALID,918.991,VALID,0,VALID,93.2725,VALID,0,VALID,19.1749,VALID,150,VALID,1.01641,
2009-09-02, 00:30:05,VALID,918.969,VALID,0,VALID,93.2877,VALID,0,VALID,19.2153,VALID,150,VALID,0.76875,
2009-09-02, 00:31:05,VALID,918.977,VALID,0,VALID,93.3716,VALID,0,VALID,19.2348,VALID,150,VALID,0.53125,
2009-09-02, 00:32:05,VALID,918.96,VALID,0,VALID,93.2191,VALID,0,VALID,19.2348,VALID,150,VALID,0.876953,
2009-09-02, 00:33:05,VALID,918.933,VALID,0,VALID,93.1581,VALID,0,VALID,19.2153,VALID,150,VALID,0.815625,
2009-09-02, 00:34:05,VALID,918.885,VALID,0,VALID,93.2039,VALID,0,VALID,19.1944,VALID,150,VALID,0.703125,
2009-09-02, 00:35:05,VALID,918.922,VALID,0,VALID,93.0362,VALID,0,VALID,19.2153,VALID,150,VALID,0.971875,
2009-09-02, 00:36:05,VALID,918.909,VALID,0,VALID,93.2572,VALID,0,VALID,19.2348,VALID,150,VALID,0.446875,
2009-09-02, 00:37:05,VALID,918.931,VALID,0,VALID,93.6232,VALID,0,VALID,19.2334,VALID,150,VALID,0.565625,
2009-09-02, 00:38:05,VALID,918.903,VALID,0,VALID,93.6232,VALID,0,VALID,19.2558,VALID,150,VALID,0.316406,
2009-09-02, 00:39:05,VALID,918.91,VALID,0,VALID,94.0425,VALID,0,VALID,19.2543,VALID,150,VALID,0.810547,
2009-09-02, 00:40:05,VALID,918.911,VALID,0,VALID,94.3398,VALID,0,VALID,19.2558,VALID,150,VALID,0.896484,
2009-09-02, 00:41:05,VALID,918.89,VALID,0,VALID,94.5075,VALID,0,VALID,19.2153,VALID,150,VALID,0.841797,
2009-09-02, 00:42:05,VALID,918.903,VALID,0,VALID,94.4846,VALID,0,VALID,19.1958,VALID,150,VALID,0.542188,
2009-09-02, 00:43:05,VALID,918.908,VALID,0,VALID,94.4846,VALID,0,VALID,19.1958,VALID,150,VALID,0.313672,
2009-09-02, 00:44:05,VALID,918.899,VALID,0,VALID,94.4541,VALID,0,VALID,19.2153,VALID,150,VALID,0.425781,
2009-09-02, 00:45:05,VALID,918.88,VALID,0,VALID,94.3321,VALID,0,VALID,19.2168,VALID,150,VALID,0.401563,
2009-09-02, 00:46:05,VALID,918.879,VALID,0,VALID,94.1721,VALID,0,VALID,19.2363,VALID,150,VALID,0.506641,
2009-09-02, 00:47:05,VALID,918.903,VALID,0,VALID,93.9357,VALID,0,VALID,19.2363,VALID,150,VALID,0.555469,
2009-09-02, 00:48:05,VALID,918.889,VALID,0,VALID,93.7604,VALID,0,VALID,19.2558,VALID,150,VALID,0.424609,
2009-09-02, 00:49:05,VALID,918.883,VALID,0,VALID,93.646,VALID,0,VALID,19.2753,VALID,150,VALID,0.307422,
2009-09-02, 00:50:05,VALID,918.874,VALID,0,VALID,93.8671,VALID,0,VALID,19.2948,VALID,150,VALID,0.235547,
2009-09-02, 00:51:05,VALID,918.906,VALID,0,VALID,93.829,VALID,0,VALID,19.2933,VALID,150,VALID,0.136719,
2009-09-02, 00:52:05,VALID,918.923,VALID,0,VALID,93.7451,VALID,0,VALID,19.2933,VALID,150,VALID,0.309375,
2009-09-02, 00:53:05,VALID,918.907,VALID,0,VALID,93.9205,VALID,0,VALID,19.3308,VALID,150,VALID,0.228125,
2009-09-02, 00:54:05,VALID,918.899,VALID,0,VALID,93.7528,VALID,0,VALID,19.3323,VALID,150,VALID,0.380859,
2009-09-02, 00:55:05,VALID,918.902,VALID,0,VALID,93.829,VALID,0.107441,VALID,19.3308,VALID,150,VALID,0.925781,
2009-09-02, 00:56:05,VALID,918.888,VALID,0,VALID,93.6918,VALID,0,VALID,19.4103,VALID,150,VALID,0.362109,
2009-09-02, 00:57:05,VALID,918.922,VALID,0,VALID,93.6155,VALID,0,VALID,19.4493,VALID,150,VALID,0.132031,
2009-09-02, 00:58:05,VALID,918.884,VALID,0,VALID,93.707,VALID,0,VALID,19.4478,VALID,150,VALID,0.256641,
2009-09-02, 00:59:05,VALID,918.864,VALID,0,VALID,93.7528,VALID,0,VALID,19.4883,VALID,150,VALID,0,
2009-09-02, 01:00:05,VALID,918.854,VALID,0,VALID,93.89,VALID,0,VALID,19.4883,VALID,150,VALID,0.323047,
2009-09-02, 01:01:05,VALID,918.823,VALID,0,VALID,93.8747,VALID,0,VALID,19.4868,VALID,150,VALID,0.765234,
2009-09-02, 01:02:05,VALID,918.818,VALID,0,VALID,93.7299,VALID,0,VALID,19.5063,VALID,150,VALID,0.744531,
2009-09-02, 01:03:05,VALID,918.794,VALID,0,VALID,93.829,VALID,0,VALID,19.5273,VALID,150,VALID,1.03281,
2009-09-02, 01:04:05,VALID,918.783,VALID,0,VALID,93.6155,VALID,0,VALID,19.4673,VALID,150,VALID,1.42344,
2009-09-02, 01:05:05,VALID,918.739,VALID,0,VALID,93.5012,VALID,0,VALID,19.4883,VALID,150,VALID,1.35977,
2009-09-02, 01:06:05,VALID,918.717,VALID,0,VALID,93.5164,VALID,0,VALID,19.4868,VALID,150,VALID,1.13594,
2009-09-02, 01:07:05,VALID,918.7,VALID,0,VALID,93.6918,VALID,0,VALID,19.4673,VALID,123,VALID,1.68828,
2009-09-02, 01:08:05,VALID,918.72,VALID,0,VALID,93.6842,VALID,0,VALID,19.4898,VALID,1,VALID,1.18633,
2009-09-02, 01:09:05,VALID,918.664,VALID,0,VALID,94.1034,VALID,0,VALID,19.5093,VALID,11,VALID,1.13672,
2009-09-02, 01:10:05,VALID,918.698,VALID,0,VALID,94.1568,VALID,0,VALID,19.5093,VALID,31,VALID,1.09531,
2009-09-02, 01:11:05,VALID,918.693,VALID,0,VALID,94.1568,VALID,0,VALID,19.5078,VALID,31,VALID,0.535937,
2009-09-02, 01:12:05,VALID,918.693,VALID,0,VALID,94.233,VALID,0,VALID,19.4883,VALID,31,VALID,0.925,
2009-09-02, 01:13:05,VALID,918.678,VALID,0,VALID,94.355,VALID,0,VALID,19.4883,VALID,31,VALID,1.09844,
2009-09-02, 01:14:05,VALID,918.669,VALID,0,VALID,94.0043,VALID,0,VALID,19.4298,VALID,31,VALID,1.55547,
2009-09-02, 01:15:05,VALID,918.665,VALID,0,VALID,93.7604,VALID,0,VALID,19.4118,VALID,31,VALID,1.28789,
2009-09-02, 01:16:05,VALID,918.646,VALID,0,VALID,93.9738,VALID,0,VALID,19.3908,VALID,31,VALID,1.65391,
2009-09-02, 01:17:05,VALID,918.665,VALID,0,VALID,94.1721,VALID,0,VALID,19.3518,VALID,31,VALID,1.29883,
2009-09-02, 01:18:05,VALID,918.655,VALID,0,VALID,94.2788,VALID,0,VALID,19.3323,VALID,31,VALID,0.966016,
2009-09-02, 01:19:05,VALID,918.669,VALID,0,VALID,94.5913,VALID,0,VALID,19.3533,VALID,31,VALID,1.5125,
2009-09-02, 01:20:05,VALID,918.649,VALID,0,VALID,94.8124,VALID,0,VALID,19.3323,VALID,31,VALID,1.16445,
2009-09-02, 01:21:05,VALID,918.671,VALID,0,VALID,94.9725,VALID,0,VALID,19.3713,VALID,31,VALID,1.04141,
2009-09-02, 01:22:05,VALID,918.691,VALID,0,VALID,95.064,VALID,0,VALID,19.3908,VALID,31,VALID,1.06289,
2009-09-02, 01:23:05,VALID,918.677,VALID,0,VALID,94.9725,VALID,0.107441,VALID,19.4088,VALID,31,VALID,0.746484,
2009-09-02, 01:24:05,VALID,918.666,VALID,0,VALID,94.9878,VALID,0,VALID,19.4283,VALID,31,VALID,0.333594,
2009-09-02, 01:25:05,VALID,918.685,VALID,0,VALID,94.8963,VALID,0.107441,VALID,19.4478,VALID,31,VALID,0.537891,
2009-09-02, 01:26:05,VALID,918.651,VALID,0,VALID,94.9115,VALID,0.107441,VALID,19.4673,VALID,31,VALID,1.17813,
2009-09-02, 01:27:05,VALID,918.641,VALID,0,VALID,94.9878,VALID,0.107441,VALID,19.4853,VALID,31,VALID,1.6582,
2009-09-02, 01:28:05,VALID,918.63,VALID,0,VALID,94.7438,VALID,0.107441,VALID,19.5243,VALID,31,VALID,0.762891,
2009-09-02, 01:29:05,VALID,918.633,VALID,0,VALID,94.6142,VALID,0,VALID,19.5648,VALID,31,VALID,1.18711,
2009-09-02, 01:30:05,VALID,918.649,VALID,0,VALID,94.5761,VALID,0.107441,VALID,19.5843,VALID,31,VALID,0.666797,
2009-09-02, 01:31:05,VALID,918.627,VALID,0,VALID,94.4999,VALID,0.107441,VALID,19.5843,VALID,31,VALID,0.285156,
2009-09-02, 01:32:05,VALID,918.589,VALID,0,VALID,94.6066,VALID,0,VALID,19.6038,VALID,31,VALID,0.530078,
2009-09-02, 01:33:05,VALID,918.556,VALID,0,VALID,94.5761,VALID,0,VALID,19.6233,VALID,31,VALID,0.7,
2009-09-02, 01:34:05,VALID,918.55,VALID,0,VALID,94.6676,VALID,0.107441,VALID,19.6428,VALID,317,VALID,0.914063,
2009-09-02, 01:35:05,VALID,918.518,VALID,0,VALID,94.6676,VALID,0.107441,VALID,19.6428,VALID,317,VALID,1.40703,
2009-09-02, 01:36:05,VALID,918.528,VALID,0,VALID,94.6142,VALID,0,VALID,19.6428,VALID,318,VALID,0.386719,
2009-09-02, 01:37:05,VALID,918.494,VALID,0,VALID,94.6523,VALID,0.107441,VALID,19.6428,VALID,318,VALID,0.185156,
2009-09-02, 01:38:05,VALID,918.485,VALID,0,VALID,94.7896,VALID,0,VALID,19.6638,VALID,318,VALID,0.467969,
2009-09-02, 01:39:05,VALID,918.455,VALID,0,VALID,94.6905,VALID,0,VALID,19.6833,VALID,318,VALID,0.615625,
2009-09-02, 01:40:05,VALID,918.448,VALID,0,VALID,94.6981,VALID,0,VALID,19.6833,VALID,318,VALID,0.827344,
2009-09-02, 01:41:05,VALID,918.472,VALID,0,VALID,94.8734,VALID,0,VALID,19.6833,VALID,318,VALID,0.625391,
2009-09-02, 01:42:05,VALID,918.427,VALID,0,VALID,94.9649,VALID,0,VALID,19.7028,VALID,318,VALID,0.858203,
2009-09-02, 01:43:05,VALID,918.438,VALID,0,VALID,95.0411,VALID,0,VALID,19.7028,VALID,318,VALID,0.636719,
2009-09-02, 01:44:05,VALID,918.404,VALID,0,VALID,94.9801,VALID,0,VALID,19.6833,VALID,318,VALID,0.929688,
2009-09-02, 01:45:05,VALID,918.367,VALID,0,VALID,95.0564,VALID,0,VALID,19.7028,VALID,318,VALID,1.47344,
2009-09-02, 01:46:05,VALID,918.335,VALID,0,VALID,95.0564,VALID,0,VALID,19.7223,VALID,318,VALID,1.2832,
2009-09-02, 01:47:05,VALID,918.346,VALID,0,VALID,94.9344,VALID,0,VALID,19.7013,VALID,318,VALID,1.36016,
2009-09-02, 01:48:05,VALID,918.333,VALID,0,VALID,94.9039,VALID,0,VALID,19.7013,VALID,318,VALID,0.838672,
2009-09-02, 01:49:05,VALID,918.313,VALID,0,VALID,94.8048,VALID,0,VALID,19.7418,VALID,318,VALID,1.16758,
2009-09-02, 01:50:05,VALID,918.279,VALID,0,VALID,94.9115,VALID,0,VALID,19.7418,VALID,19,VALID,1.325,
2009-09-02, 01:51:05,VALID,918.292,VALID,0,VALID,94.9192,VALID,0,VALID,19.7613,VALID,25,VALID,1.14297,
2009-09-02, 01:52:05,VALID,918.289,VALID,0,VALID,94.9649,VALID,0,VALID,19.7403,VALID,25,VALID,0.9375,
2009-09-02, 01:53:05,VALID,918.284,VALID,0,VALID,95.0259,VALID,0,VALID,19.7403,VALID,25,VALID,0.998047,
2009-09-02, 01:54:05,VALID,918.302,VALID,0,VALID,95.0716,VALID,0,VALID,19.7808,VALID,25,VALID,0.907812,
2009-09-02, 01:55:05,VALID,918.277,VALID,0,VALID,95.0106,VALID,0,VALID,19.8003,VALID,25,VALID,1.05273,
2009-09-02, 01:56:05,VALID,918.242,VALID,0,VALID,94.9496,VALID,0,VALID,19.7808,VALID,25,VALID,0.782031,
2009-09-02, 01:57:04,VALID,918.269,VALID,0,VALID,94.9268,VALID,0,VALID,19.7598,VALID,25,VALID,1.14922,
2009-09-02, 01:58:04,VALID,918.233,VALID,0,VALID,94.9496,VALID,0,VALID,19.7808,VALID,25,VALID,0.761719,
2009-09-02, 01:59:04,VALID,918.23,VALID,0,VALID,94.9344,VALID,0,VALID,19.7598,VALID,25,VALID,0.516797,
2009-09-02, 02:00:04,VALID,918.251,VALID,0,VALID,94.8887,VALID,0,VALID,19.7598,VALID,25,VALID,0.867578,
2009-09-02, 02:01:04,VALID,918.214,VALID,0,VALID,94.8124,VALID,0,VALID,19.7808,VALID,25,VALID,0.628125,
2009-09-02, 02:02:04,VALID,918.191,VALID,0,VALID,94.8124,VALID,0,VALID,19.7403,VALID,25,VALID,0.628125,
2009-09-02, 02:03:04,VALID,918.191,VALID,0,VALID,94.7591,VALID,0,VALID,19.7613,VALID,25,VALID,0.765625,
2009-09-02, 02:04:04,VALID,918.149,VALID,0,VALID,94.8887,VALID,0,VALID,19.7613,VALID,25,VALID,1.14297,
2009-09-02, 02:05:04,VALID,918.153,VALID,0,VALID,94.881,VALID,0,VALID,19.7613,VALID,25,VALID,0.939844,
2009-09-02, 02:06:04,VALID,918.121,VALID,0,VALID,95.0106,VALID,0,VALID,19.7613,VALID,25,VALID,0.827734,
2009-09-02, 02:07:04,VALID,918.129,VALID,0,VALID,95.0792,VALID,0,VALID,19.7598,VALID,25,VALID,0.580078,
2009-09-02, 02:08:04,VALID,918.116,VALID,0,VALID,95.0259,VALID,0,VALID,19.7808,VALID,25,VALID,0.384375,
2009-09-02, 02:09:04,VALID,918.082,VALID,0,VALID,94.6828,VALID,0,VALID,19.7223,VALID,25,VALID,0.38125,
2009-09-02, 02:10:04,VALID,918.065,VALID,0,VALID,94.5304,VALID,0,VALID,19.6833,VALID,25,VALID,0.553906,
2009-09-02, 02:11:04,VALID,918.058,VALID,0,VALID,94.5304,VALID,0,VALID,19.6428,VALID,25,VALID,0.278906,
2009-09-02, 02:12:04,VALID,918.062,VALID,0,VALID,94.5761,VALID,0,VALID,19.6248,VALID,25,VALID,0,
2009-09-02, 02:13:04,VALID,918.062,VALID,0,VALID,94.7819,VALID,0,VALID,19.6248,VALID,25,VALID,0,
2009-09-02, 02:14:04,VALID,918.044,VALID,0,VALID,94.9649,VALID,0,VALID,19.6443,VALID,25,VALID,0,
2009-09-02, 02:15:04,VALID,918.034,VALID,0,VALID,94.942,VALID,0,VALID,19.6638,VALID,25,VALID,0.766406,
2009-09-02, 02:16:04,VALID,918.004,VALID,0,VALID,94.8963,VALID,0,VALID,19.6443,VALID,25,VALID,0.583984,
2009-09-02, 02:17:04,VALID,918.004,VALID,0,VALID,95.0945,VALID,0,VALID,19.6443,VALID,25,VALID,0.829687,
2009-09-02, 02:18:04,VALID,917.988,VALID,0,VALID,95.1555,VALID,0,VALID,19.6638,VALID,25,VALID,1.3043,
2009-09-02, 02:19:04,VALID,917.982,VALID,0,VALID,95.3842,VALID,0,VALID,19.6638,VALID,25,VALID,1.33281,
2009-09-02, 02:20:04,VALID,918.01,VALID,0,VALID,95.5214,VALID,0,VALID,19.7028,VALID,25,VALID,0.998047,
2009-09-02, 02:21:04,VALID,917.973,VALID,0,VALID,95.5519,VALID,0,VALID,19.7028,VALID,25,VALID,0.666406,
2009-09-02, 02:22:04,VALID,917.985,VALID,0,VALID,95.5443,VALID,0,VALID,19.7028,VALID,25,VALID,0.859375,
2009-09-02, 02:23:04,VALID,917.965,VALID,0,VALID,95.5976,VALID,0,VALID,19.7028,VALID,25,VALID,0.432813,
2009-09-02, 02:24:04,VALID,917.955,VALID,0,VALID,95.529,VALID,0,VALID,19.7028,VALID,25,VALID,0.249609,
2009-09-02, 02:25:04,VALID,917.939,VALID,0,VALID,95.5214,VALID,0,VALID,19.7028,VALID,25,VALID,0.132031,
2009-09-02, 02:26:04,VALID,917.915,VALID,0,VALID,95.5671,VALID,0,VALID,19.7223,VALID,25,VALID,0.0191406,
2009-09-02, 02:27:04,VALID,917.944,VALID,0,VALID,95.5748,VALID,0,VALID,19.7223,VALID,25,VALID,0.283594,
2009-09-02, 02:28:04,VALID,917.92,VALID,0,VALID,95.5824,VALID,0,VALID,19.7418,VALID,25,VALID,0.467578,
2009-09-02, 02:29:04,VALID,917.937,VALID,0,VALID,95.6357,VALID,0,VALID,19.7418,VALID,25,VALID,1.05508,
2009-09-02, 02:30:04,VALID,917.928,VALID,0,VALID,95.7196,VALID,0,VALID,19.7598,VALID,25,VALID,0.898828,
2009-09-02, 02:31:04,VALID,917.918,VALID,0,VALID,95.7349,VALID,0,VALID,19.8003,VALID,25,VALID,0.701172,
2009-09-02, 02:32:04,VALID,917.877,VALID,0,VALID,95.6967,VALID,0,VALID,19.8003,VALID,25,VALID,0.851563,
2009-09-02, 02:33:04,VALID,917.915,VALID,0,VALID,95.6967,VALID,0,VALID,19.8213,VALID,25,VALID,0.495703,
2009-09-02, 02:34:04,VALID,917.913,VALID,0,VALID,95.7044,VALID,0,VALID,19.8003,VALID,25,VALID,0.407813,
2009-09-02, 02:35:04,VALID,917.88,VALID,0,VALID,95.6434,VALID,0,VALID,19.7988,VALID,25,VALID,0.696484,
2009-09-02, 02:36:04,VALID,917.902,VALID,0,VALID,95.6205,VALID,0,VALID,19.8003,VALID,25,VALID,0.499609,
2009-09-02, 02:37:04,VALID,917.877,VALID,0,VALID,95.6815,VALID,0,VALID,19.8198,VALID,25,VALID,1.05,
2009-09-02, 02:38:04,VALID,917.91,VALID,0,VALID,95.6891,VALID,0,VALID,19.8198,VALID,25,VALID,1.09961,
2009-09-02, 02:39:04,VALID,917.873,VALID,0,VALID,95.651,VALID,0,VALID,19.8393,VALID,25,VALID,0.929297,
2009-09-02, 02:40:04,VALID,917.844,VALID,0,VALID,95.6281,VALID,0,VALID,19.7988,VALID,25,VALID,0.528125,
2009-09-02, 02:41:04,VALID,917.872,VALID,0,VALID,95.6053,VALID,0,VALID,19.8393,VALID,25,VALID,0.525391,
2009-09-02, 02:42:04,VALID,917.868,VALID,0,VALID,95.5824,VALID,0,VALID,19.8393,VALID,25,VALID,0.364844,
2009-09-02, 02:43:04,VALID,917.848,VALID,0,VALID,95.6053,VALID,0,VALID,19.8393,VALID,25,VALID,0.450391,
2009-09-02, 02:44:04,VALID,917.805,VALID,0,VALID,95.5519,VALID,0,VALID,19.8393,VALID,25,VALID,0.715234,
2009-09-02, 02:45:04,VALID,917.812,VALID,0,VALID,95.5367,VALID,0,VALID,19.8393,VALID,25,VALID,0.880859,
2009-09-02, 02:46:04,VALID,917.786,VALID,0,VALID,95.529,VALID,0,VALID,19.8393,VALID,25,VALID,0.594922,
2009-09-02, 02:47:04,VALID,917.771,VALID,0,VALID,95.5519,VALID,0,VALID,19.8588,VALID,25,VALID,0.432422,
2009-09-02, 02:48:04,VALID,917.761,VALID,0,VALID,95.468,VALID,0,VALID,19.8588,VALID,25,VALID,0.625781,
2009-09-02, 02:49:04,VALID,917.745,VALID,0,VALID,95.4071,VALID,0,VALID,19.8393,VALID,25,VALID,0.623828,
2009-09-02, 02:50:04,VALID,917.748,VALID,0,VALID,95.3766,VALID,0,VALID,19.8393,VALID,25,VALID,0.782031,
2009-09-02, 02:51:04,VALID,917.735,VALID,0,VALID,95.3613,VALID,0,VALID,19.8198,VALID,25,VALID,1.17539,
2009-09-02, 02:52:04,VALID,917.721,VALID,0,VALID,95.3537,VALID,0,VALID,19.8198,VALID,25,VALID,1.08047,
2009-09-02, 02:53:04,VALID,917.712,VALID,0,VALID,95.3842,VALID,0,VALID,19.8393,VALID,25,VALID,0.348437,
2009-09-02, 02:54:04,VALID,917.723,VALID,0,VALID,95.3689,VALID,0,VALID,19.8393,VALID,25,VALID,0.406641,
2009-09-02, 02:55:04,VALID,917.713,VALID,0,VALID,95.3308,VALID,0,VALID,19.8588,VALID,25,VALID,0.262891,
2009-09-02, 02:56:04,VALID,917.666,VALID,0,VALID,95.3384,VALID,0,VALID,19.8378,VALID,25,VALID,0.105469,
2009-09-02, 02:57:04,VALID,917.674,VALID,0,VALID,95.3156,VALID,0,VALID,19.8783,VALID,25,VALID,0,
2009-09-02, 02:58:04,VALID,917.691,VALID,0,VALID,95.247,VALID,0,VALID,19.8588,VALID,25,VALID,0,
2009-09-02, 02:59:04,VALID,917.667,VALID,0,VALID,95.1936,VALID,0,VALID,19.8588,VALID,25,VALID,0.174609,
2009-09-02, 03:00:04,VALID,917.69,VALID,0,VALID,95.2088,VALID,0,VALID,19.8588,VALID,25,VALID,0.132031,
2009-09-02, 03:01:04,VALID,917.663,VALID,0,VALID,95.1326,VALID,0,VALID,19.8588,VALID,25,VALID,0,
2009-09-02, 03:02:04,VALID,917.65,VALID,0,VALID,95.1402,VALID,0,VALID,19.8378,VALID,25,VALID,0,
2009-09-02, 03:03:04,VALID,917.65,VALID,0,VALID,95.1479,VALID,0,VALID,19.8783,VALID,25,VALID,0.0246094,
2009-09-02, 03:04:04,VALID,917.653,VALID,0,VALID,95.0945,VALID,0,VALID,19.8783,VALID,25,VALID,0.305469,
2009-09-02, 03:05:04,VALID,917.624,VALID,0,VALID,95.0564,VALID,0,VALID,19.8783,VALID,25,VALID,0.399219,
2009-09-02, 03:06:04,VALID,917.631,VALID,0,VALID,95.0106,VALID,0,VALID,19.8783,VALID,25,VALID,0.311328,
2009-09-02, 03:07:04,VALID,917.651,VALID,0,VALID,94.9496,VALID,0,VALID,19.8588,VALID,25,VALID,0.114453,
2009-09-02, 03:08:04,VALID,917.625,VALID,0,VALID,94.9725,VALID,0,VALID,19.8783,VALID,25,VALID,0.31875,
2009-09-02, 03:09:04,VALID,917.628,VALID,0,VALID,94.9954,VALID,0,VALID,19.8783,VALID,25,VALID,0.108203,
2009-09-02, 03:10:04,VALID,917.643,VALID,0,VALID,95.0106,VALID,0,VALID,19.8978,VALID,25,VALID,0,
2009-09-02, 03:11:04,VALID,917.639,VALID,0,VALID,94.9801,VALID,0,VALID,19.8978,VALID,25,VALID,0.214453,
2009-09-02, 03:12:04,VALID,917.653,VALID,0,VALID,94.8658,VALID,0,VALID,19.8783,VALID,25,VALID,0.341016,
2009-09-02, 03:13:04,VALID,917.631,VALID,0,VALID,94.9039,VALID,0,VALID,19.8783,VALID,25,VALID,0.286719,
2009-09-02, 03:14:04,VALID,917.625,VALID,0,VALID,94.8658,VALID,0,VALID,19.8783,VALID,25,VALID,0,
2009-09-02, 03:15:04,VALID,917.599,VALID,0,VALID,94.8277,VALID,0,VALID,19.8783,VALID,25,VALID,0.196094,
2009-09-02, 03:16:04,VALID,917.592,VALID,0,VALID,94.8124,VALID,0,VALID,19.8588,VALID,25,VALID,0.188281,
2009-09-02, 03:17:04,VALID,917.607,VALID,0,VALID,94.82,VALID,0,VALID,19.8588,VALID,25,VALID,0.180859,
2009-09-02, 03:18:04,VALID,917.573,VALID,0,VALID,94.8048,VALID,0,VALID,19.8393,VALID,25,VALID,0,
2009-09-02, 03:19:04,VALID,917.566,VALID,0,VALID,94.8277,VALID,0,VALID,19.8393,VALID,25,VALID,0,
2009-09-02, 03:20:04,VALID,917.552,VALID,0,VALID,94.7972,VALID,0,VALID,19.8198,VALID,25,VALID,0,
2009-09-02, 03:21:04,VALID,917.537,VALID,0,VALID,94.82,VALID,0,VALID,19.7988,VALID,25,VALID,0,
2009-09-02, 03:22:04,VALID,917.524,VALID,0,VALID,94.8048,VALID,0,VALID,19.8198,VALID,25,VALID,0,
2009-09-02, 03:23:04,VALID,917.536,VALID,0,VALID,94.7514,VALID,0,VALID,19.8003,VALID,25,VALID,0,
2009-09-02, 03:24:04,VALID,917.496,VALID,0,VALID,94.7362,VALID,0,VALID,19.7808,VALID,25,VALID,0,
2009-09-02, 03:25:04,VALID,917.505,VALID,0,VALID,94.7819,VALID,0,VALID,19.7613,VALID,25,VALID,0,
2009-09-02, 03:26:04,VALID,917.473,VALID,0,VALID,94.7972,VALID,0,VALID,19.7418,VALID,25,VALID,0,
2009-09-02, 03:27:04,VALID,917.452,VALID,0,VALID,94.7743,VALID,0,VALID,19.7223,VALID,25,VALID,0.297656,
2009-09-02, 03:28:04,VALID,917.444,VALID,0,VALID,94.7591,VALID,0,VALID,19.6638,VALID,25,VALID,0.447656,
2009-09-02, 03:29:04,VALID,917.477,VALID,0,VALID,94.7667,VALID,0,VALID,19.6443,VALID,25,VALID,0.709766,
2009-09-02, 03:30:04,VALID,917.467,VALID,0,VALID,94.82,VALID,0,VALID,19.6053,VALID,25,VALID,0.847656,
2009-09-02, 03:31:04,VALID,917.468,VALID,0,VALID,94.9801,VALID,0,VALID,19.5663,VALID,25,VALID,0.875,
2009-09-02, 03:32:04,VALID,917.453,VALID,0,VALID,94.9496,VALID,0,VALID,19.5078,VALID,25,VALID,0.828516,
2009-09-02, 03:33:04,VALID,917.447,VALID,0,VALID,94.9573,VALID,0,VALID,19.4298,VALID,25,VALID,0.911328,
2009-09-02, 03:34:04,VALID,917.445,VALID,0,VALID,95.2088,VALID,0,VALID,19.4103,VALID,25,VALID,0.923437,
2009-09-02, 03:35:04,VALID,917.403,VALID,0,VALID,95.3613,VALID,0,VALID,19.3908,VALID,25,VALID,0.664453,
2009-09-02, 03:36:04,VALID,917.414,VALID,0,VALID,95.5824,VALID,0,VALID,19.4103,VALID,25,VALID,0.615234,
2009-09-02, 03:37:04,VALID,917.399,VALID,0,VALID,95.5671,VALID,0,VALID,19.3518,VALID,25,VALID,0.443359,
2009-09-02, 03:38:04,VALID,917.384,VALID,0,VALID,95.59,VALID,0,VALID,19.3518,VALID,25,VALID,0.510938,
2009-09-02, 03:39:04,VALID,917.403,VALID,0,VALID,95.6662,VALID,0,VALID,19.3128,VALID,25,VALID,0.405469,
2009-09-02, 03:40:04,VALID,917.391,VALID,0,VALID,95.6967,VALID,0,VALID,19.3128,VALID,25,VALID,0,
2009-09-02, 03:41:04,VALID,917.403,VALID,0,VALID,95.7272,VALID,0,VALID,19.2933,VALID,25,VALID,0.356641,
2009-09-02, 03:42:04,VALID,917.446,VALID,0,VALID,95.8263,VALID,0,VALID,19.2933,VALID,25,VALID,0.497266,
2009-09-02, 03:43:04,VALID,917.432,VALID,0,VALID,95.8568,VALID,0,VALID,19.2738,VALID,25,VALID,0.782812,
2009-09-02, 03:44:04,VALID,917.464,VALID,0,VALID,95.9026,VALID,0,VALID,19.2738,VALID,25,VALID,1.00625,
2009-09-02, 03:45:04,VALID,917.467,VALID,0,VALID,95.9102,VALID,0,VALID,19.2558,VALID,25,VALID,0.941016,
2009-09-02, 03:46:04,VALID,917.495,VALID,0,VALID,95.9102,VALID,0,VALID,19.2348,VALID,25,VALID,0.757422,